Regional Weather Roundup
Issued by NWS

Home | Current Version | Previous Version | Graphics & Text | Print | Product List | Glossary On
Versions: 1 2 3 4 5 6 7 8 9 10 11 12 13 14 15 16 17 18 19 20 21 22 23 24 25 26 27 28 29 30 31 32 33 34 35 36 37 38 39 40 41 42 43 44 45 46 47 48 49 50
000
ASUS45 KTFX 261810
RWRMT
MONTANA REGIONAL WEATHER ROUNDUP
NATIONAL WEATHER SERVICE GREAT FALLS MT
1200 PM MDT TUE MAY 26 2015

NOTE: "FAIR" INDICATES FEW OR NO CLOUDS BELOW 12000 FEET WITH NO
SIGNIFICANT WEATHER AND/OR OBSTRUCTIONS TO VISIBILITY.

MTZ001>007-043-261900-
WEST OF THE DIVIDE

CITY           SKY/WX    TMP DP  RH WIND       PRES   REMARKS
KALISPELL      PTCLDY    65  46  50 CALM      29.96F
MISSOULA       PTSUNNY   57  45  64 CALM      30.00F
BUTTE          MOSUNNY   58  36  43 CALM      30.01F
MULLAN PASS    PTSUNNY   46  41  82 N3        30.03S
DEER LODGE       N/A     61  45  55 S5        30.03S
EUREKA           N/A     61  46  59 NW7       30.00F
HAMILTON         N/A     59  46  63 N5        29.98F
LIBBY            N/A     54  48  82 SE12G17   30.01R
$$

MTZ008-052>055-261900-
SOUTHWEST MONTANA

CITY           SKY/WX    TMP DP  RH WIND       PRES   REMARKS
BOZEMAN        MOSUNNY   61  48  62 N6        30.00F
DILLON         SUNNY     60  40  47 VRB3      29.99F
W YELLOWSTONE  PTSUNNY   45  39  81 S8        30.08R
THREE FORKS      N/A     63  18  17 S2        29.99S
TWIN BRIDGES     N/A     60  43  53 SE3       29.99F
$$

MTZ009-010-012-014-046-048-049-054-261900-
EAST SLOPES AND CENTRAL MONTANA

CITY           SKY/WX    TMP DP  RH WIND       PRES   REMARKS
CUT BANK       CLOUDY    53  51  93 N10       29.99S
GREAT FALLS    CLOUDY    57  49  74 CALM      29.97S
HELENA         SUNNY     65  46  50 VRB6      29.95F
CONRAD           N/A     54  54 100 N7        30.01R
$$

MTZ011-013-016-021-045-047-050-051-261900-
NORTH CENTRAL MONTANA

CITY           SKY/WX    TMP DP  RH WIND       PRES   REMARKS
HAVRE          PTSUNNY   66  49  54 SW8       29.92S
LEWISTOWN      TSTM      56  51  84 MISG      29.98R
N BAR RANCH    FAIR      66  46  48 S9G17     29.97S
CHINOOK          N/A     72  46  40 W3        29.91S
FORT BENTON      N/A     55  54  94 SW6       29.99R
$$

MTZ017>020-022>027-061-062-261900-
NORTHEAST MONTANA

CITY           SKY/WX    TMP DP  RH WIND       PRES   REMARKS
GLASGOW        SUNNY     71  46  40 S8        29.91S
JORDAN           N/A     71  48  43 VRB7      29.90F
SIDNEY         SUNNY     73  50  43 CALM      29.92F
WOLF POINT     SUNNY     74  50  42 CALM      29.91S
MALTA            N/A     71  51  49 CALM      29.88S
POPLAR           N/A     73  50  43 S5        29.91F
SCOBEY           N/A     74  43  32 SE5       29.92S
$$

MTZ028>42-056>058-261900-
SOUTHCENTRAL AND SOUTHEAST MONTANA

CITY           SKY/WX    TMP DP  RH WIND       PRES   REMARKS
BAKER          SUNNY     70  48  45 S13       29.97S
BILLINGS       PTSUNNY   68  46  45 W8        29.94S
LIVINGSTON     CLOUDY    61  45  55 VRB5      29.98S
MILES CITY     SUNNY     71  50  47 E8        29.92F
BIG TIMBER       N/A     61  46  59 W8        29.97F
EKALAKA          N/A     65  49  56 SE8       29.96S
FORSYTH          N/A     70  46  43 CALM      29.91F
LAUREL           N/A     66  46  48 W5        29.94S
ROUNDUP          N/A     66  50  56 CALM      29.85F
$$

REGIONAL REPORTS...DAKOTAS

CITY           SKY/WX    TMP DP  RH WIND       PRES   REMARKS
WILLISTON      SUNNY     76  43  30 S8        29.92S
MINOT          SUNNY     79  45  29 NW14G21   29.87S
DICKINSON      SUNNY     73  46  38 S6        29.93S
BEACH          FAIR      70  46  43 S13G18    29.96S
CROSBY         FAIR      77  39  25 SW12      29.90F
WATFORD CITY   FAIR      73  43  33 SW10      29.90F
BISMARCK       SUNNY     78  49  35 NW14      29.90F
GRAND FORKS    MOSUNNY   80  52  37 W5        29.77F
FARGO          PTSUNNY   73  55  53 S9        29.81F
BUFFALO SD       N/A     69  49  48 SE9       29.91S
RAPID CITY     MOSUNNY   66  48  52 S12G20    29.99S
$$

REGIONAL REPORTS...WYOMING/IDAHO/WASHINGTON

CITY           SKY/WX    TMP DP  RH WIND       PRES   REMARKS
GILLETTE       PTSUNNY   65  50  58 S10       29.96F
SHERIDAN       MOSUNNY   68  46  45 CALM      29.94F
BUFFALO WY     MOSUNNY   62  49  62 VRB5      29.98F
CODY           PTSUNNY   61  43  51 NW6       29.97F
YELLOWSTONE LA   N/A     48  39  71 VRB5      30.11F
IDAHO FALLS    PTSUNNY   61  48  62 W10       30.01F
SALMON         MOSUNNY   61  48  63 N5        29.98F
BOISE          MOSUNNY   67  49  52 VRB3      29.95F
SPOKANE        PTSUNNY   60  48  64 SW6       29.98S
$$

REGIONAL REPORTS...ALBERTA

CITY           SKY/WX    TMP DP  RH WIND       PRES   REMARKS
EDMONTON       MOSUNNY   72  46  40 N6        29.97R
CALGARY        CLOUDY    64  41  42 W10       30.00S
LETHBRIDGE     CLOUDY    59  48  67 W21G26    29.97R
MEDICINE HAT   CLOUDY    72  45  37 CALM      29.90S
$$

REGIONAL REPORTS...SASKATCHEWAN

CITY           SKY/WX    TMP DP  RH WIND       PRES   REMARKS
SWIFT CURRENT  SUNNY     77  34  20 VRB3      29.89F
REGINA         MOSUNNY   79  41  25 N8        29.86F
SASKATOON      PTSUNNY   79  39  24 NW7       29.86S
$$


USA.gov is the U.S. government's official web portal to all federal, state and local government web resources and services.